Погода в Морякове

Россия / Астраханская область     46°09′49″N   47°55′36″E
темп.,
°C
ветер,
м/с
пор.,
м/с
влажн.,
%
обл.,
%
осадки,
мм/ч
давл.,
гПа
погр.,
м
18 апреля, вс
вс1801:00+16с4659100 0.0 1020344
04:00+15сз3568100 0.3 1021383
07:00+13ссв3478100 1.9 1020268
10:00+15св2367100 1.9 1019514
13:00+18ссв1154100 0.0 10191089
16:00+18сз2253100 0.1 10181173
19:00+17ссв225898 0.2 1018818
22:00+15зсз2262100 0.2 1018147
19 апреля, пн
пн1901:00+15зсз2366100 0.0 1018146
04:00+15сз2268100 0.0 101792
07:00+14с117395 0.0 101757
10:00+16юз2265100 0.0 1018480
13:00+19юз2354100 0.0 10171073
16:00+19зюз6558100 0.0 1016910
19:00+17зюз4566100 0.1 1016483
22:00+14ююз3584100 0.8 1017267
20 апреля, вт
вт2001:00+13ююз1190100 0.1 101740
04:00+14ююв2389100 0.2 1016156
07:00+14вюв3688100 0.0 1015254
10:00+19вюв6861100 0.0 1015821
13:00+21вюв91148100 0.0 10131165
16:00+20вюв91142100 0.0 10131110
19:00+17в81447100 0.0 1013650
22:00+16вюв122157100 0.0 1012618
21 апреля, ср
ср2101:00+16вюв122252100 0.0 1011711
04:00+15вюв71354100 0.0 1015657
07:00+12вюв71381100 2.1 1016494
10:00+11вюв71384100 7.0 1019576
13:00+12вюв688096 0.3 1020563
16:00+15вюв6764100 0.3 1021991
19:00+13в5778100 0.5 1022543
22:00+11св5880100 1.3 1023407
22 апреля, чт
чт2201:00+11св5777100 0.0 1022301
04:00+12св5773100 0.0 1022209
07:00+10в61090100 7.4 1022340
10:00+12вюв71071100 9.3 1024680
13:00+14вюв6850100 0.0 1024957
16:00+12всв6861100 0.0 1024626
19:00+12ссв4661100 0.0 1024275
22:00+11ссв61056100 0.1 1024328